GFSFLT1_2pvu_pres_162.txt.gz
Presure
169 175 177 191 199 205 208 191 177 203 195 225 164 216 208 202 204 199 216 221 207 195 196 196 207 146 203 209 204 160 193 173
166 159 170 186 189 217 206 200 223 169 203 203 160 191 205 199 195 194 210 226 214 203 203 205 203 202 204 209 215 214 200 189
189 180 181 187 199 205 206 229 204 211 203 201 195 189 205 205 203 203 202 214 234 225 218 205 205 204 206 204 216 198 224 181
183 219 201 191 203 207 219 212 203 193 191 194 206 205 203 198 207 210 212 228 222 230 228 218 217 215 209 216 218 218 217 205
209 219 209 213 204 201 210 179 204 204 196 191 192 187 193 218 200 215 219 229 243 230 239 233 225 221 206 214 217 219 213 224
212 205 202 192 200 76 199 199 193 204 204 203 207 203 205 214 219 236 259 242 249 240 238 241 242 249 241 230 232 243 245 236
214 206 218 213 187 179 210 214 214 225 239 253 240 237 249 271 261 258 270 268 264 254 264 256 253 259 254 252 249 228 244 265
226 214 223 205 225 234 224 230 234 246 274 278 276 276 274 267 268 268 266 263 259 262 266 268 268 265 269 270 275 281 277 279
211 218 225 230 229 232 235 252 268 290 281 282 276 276 277 281 287 289 289 288 288 285 286 291 287 281 280 286 301 297 294 299
222 228 233 236 251 265 263 289 258 279 281 279 278 283 289 283 288 287 285 279 274 279 282 279 271 272 269 271 275 270 279 285
254 265 270 268 274 288 282 281 279 291 307 312 351 342 332 333 335 333 332 333 332 326 321 317 309 304 316 305 287 277 276 272
247 267 285 281 280 233 272 284 313 330 343 315 309 303 297 293 290 295 302 306 312 311 303 297 287 284 279 269 266 259 254 259
287 279 283 282 284 317 315 308 319 317 306 294 281 281 276 268 266 264 263 265 269 270 261 259 259 262 255 254 252 247 250 255
288 286 297 323 321 309 313 335 339 298 282 267 261 254 252 253 253 253 247 247 244 242 242 247 246 245 239 242 237 239 245 253
301 327 331 332 314 318 322 292 269 262 253 251 250 245 243 242 242 243 243 243 243 248 241 241 236 238 234 239 239 235 242 248
336 339 309 303 309 283 263 257 252 247 242 240 231 230 233 232 234 235 236 239 238 239 239 241 241 239 240 237 241 243 239 250
307 282 311 293 267 259 254 243 240 239 228 228 229 229 234 230 230 239 249 253 257 262 244 245 247 249 246 247 250 244 246 249
298 301 273 258 252 243 243 234 227 228 226 229 228 226 230 239 243 246 246 251 269 325 322 372 400 322 272 250 243 240 249 248
273 259 249 249 240 231 227 227 227 219 227 221 222 234 241 241 251 264 281 268 266 303 308 356 373 384 368 358 333 288 263 241

GFSFLT1_2pvu_pres_165.txt.gz
Presure
142 160 175 164 154 163 186 183 173 180 188 197 181 184 247 231 228 217 223 220 208 207 189 185 191 204 208 193 211 228 210 203
178 169 173 181 186 190 168 177 195 176 179 193 212 239 222 216 215 203 202 221 205 193 194 217 194 195 203 202 203 211 231 223
161 166 161 167 174 183 195 199 169 202 198 223 227 234 207 218 210 190 215 201 200 202 216 184 210 195 215 191 219 204 222 239
170 165 166 188 176 183 176 188 216 239 237 233 216 219 221 207 210 222 201 198 194 203 210 210 191 208 217 199 211 211 232 223
171 175 178 186 188 201 194 242 243 242 213 206 213 202 214 209 206 206 217 223 221 211 215 204 204 214 211 209 209 220 223 242
191 183 192 202 210 204 231 217 222 215 207 212 215 210 216 221 228 219 227 230 242 238 233 246 222 227 229 227 243 236 257 250
158 198 202 195 223 204 219 221 235 226 216 215 220 222 225 229 240 255 267 287 303 296 292 284 285 279 271 268 267 262 273 267
194 201 201 216 81 238 229 230 227 229 229 235 242 240 249 267 288 300 295 297 300 298 292 284 285 284 282 279 278 279 271 263
213 240 261 255 247 248 255 250 248 273 253 248 240 265 297 296 293 296 295 367 360 353 292 290 283 283 284 288 290 292 294 295
273 267 250 271 259 268 211 220 226 238 251 240 292 295 299 337 370 342 330 323 323 327 327 327 328 304 299 294 289 289 285 286
269 263 252 235 221 239 256 260 275 290 287 289 294 319 333 317 307 296 287 287 290 291 296 299 308 318 324 320 315 318 300 304
269 264 263 260 266 285 291 284 282 284 291 315 334 317 295 285 272 266 260 257 259 264 266 271 275 283 284 288 292 298 301 280
271 268 273 288 294 290 286 286 296 331 330 348 305 269 262 262 254 255 254 254 253 252 249 250 257 255 258 262 258 265 261 259
289 293 298 286 285 293 312 349 329 336 307 267 262 258 253 251 247 243 242 244 245 246 248 249 249 247 247 244 249 254 251 250
293 292 284 308 313 346 328 326 297 269 264 258 252 247 245 242 234 234 237 240 241 241 242 244 248 245 249 250 247 243 242 242
281 290 318 338 325 316 300 276 260 255 248 245 240 238 233 236 230 231 231 240 241 256 252 256 258 265 284 253 245 246 246 244
303 331 308 293 315 280 265 253 247 246 235 236 231 230 225 227 230 240 243 248 256 265 277 273 272 272 319 324 302 280 250 245
300 296 286 314 268 258 254 247 235 236 228 227 225 222 227 236 243 243 248 249 249 254 258 249 286 280 298 299 397 380 327 324
313 330 282 260 254 248 230 237 228 228 226 223 230 222 237 239 239 240 248 253 252 251 258 262 266 285 282 291 286 378 379 375

GFSFLT1_2pvu_pres_171.txt.gz
Presure
169 172 165 170 177 173 172 170 169 187 169 171 177 183 187 187 190 177 176 193 172 207 188 186 200 231 230 259 248 229 233 225
178 169 170 173 170 167 180 184 188 184 150 151 169 165 172 188 175 199 189 180 185 186 212 192 228 259 253 249 228 230 239 219
177 177 178 179 171 180 177 177 151 172 170 193 194 194 192 189 194 194 183 190 183 192 202 223 256 256 242 247 240 227 219 232
170 157 164 176 185 191 178 175 171 187 186 177 177 181 179 190 194 188 190 182 193 197 264 267 259 248 240 242 242 235 226 221
186 185 182 182 188 172 173 180 191 198 198 202 193 184 183 191 189 190 190 195 201 275 270 257 248 229 220 233 257 250 241 237
193 191 167 175 191 193 191 192 192 193 200 200 191 195 199 201 194 192 284 249 283 276 277 268 234 239 250 257 261 249 253 283
170 180 176 189 191 186 176 186 184 189 182 184 192 193 195 192 198 247 267 286 238 244 250 254 255 274 328 336 367 365 367 366
146 188 181 128 184 189 183 189 187 188 182 188 197 230 232 244 268 281 243 252 263 268 266 268 305 345 320 302 305 305 312 322
179 177 170 204 183 193 193 202 244 194 244 200 265 263 275 275 271 254 277 278 269 277 325 346 308 288 285 284 285 286 284 293
252 259 282 275 227 261 263 258 265 266 271 273 275 279 267 256 273 277 272 281 305 338 306 287 279 265 261 267 262 266 268 267
250 240 248 258 245 241 233 274 264 255 268 261 257 270 284 279 271 292 299 350 308 287 271 260 257 262 255 252 254 255 256 257
258 268 248 275 274 269 233 248 248 262 252 281 277 281 284 296 296 357 316 289 269 255 255 254 243 252 254 249 249 250 251 252
267 270 264 267 258 261 271 264 282 296 286 289 292 292 295 355 329 294 268 255 253 246 244 245 243 243 252 253 254 271 264 265
268 261 263 264 264 271 294 300 285 285 281 294 290 327 343 297 274 260 255 242 243 243 234 242 244 253 255 258 258 258 266 277
265 268 272 275 307 299 286 287 284 287 290 313 355 303 277 259 254 242 241 241 229 242 237 246 248 245 252 258 274 287 274 268
273 271 303 301 291 285 283 287 286 282 350 326 282 262 250 243 239 241 229 240 238 235 245 238 242 239 243 250 267 261 283 293
303 303 291 286 284 286 284 276 315 321 286 262 249 247 235 239 231 240 236 237 232 234 237 233 235 230 245 245 250 314 307 297
290 286 282 283 281 278 298 329 304 274 257 240 238 235 233 234 226 235 230 230 232 233 220 234 237 224 228 245 241 251 310 309
282 282 280 275 279 309 280 299 269 251 240 233 234 226 233 218 229 228 230 230 230 223 222 225 222 237 236 228 249 241 254 284

GFSFLT1_2pvu_pres_174.txt.gz
Presure
173 159 172 173 172 145 164 165 173 173 171 176 171 171 182 180 173 172 184 175 185 185 196 200 192 182 161 173 204 197 177 193
186 183 144 178 152 179 154 171 177 175 168 172 164 179 176 191 193 190 185 187 185 185 192 199 178 190 188 208 212 193 194 205
186 191 188 154 182 150 181 183 182 185 190 188 181 186 185 190 183 181 184 199 203 196 195 186 206 194 196 198 195 193 204 272
183 166 187 188 193 194 193 192 192 191 185 192 190 182 177 192 198 196 196 179 185 182 192 196 186 205 195 191 203 209 276 270
170 173 170 191 192 191 194 196 187 200 202 200 197 182 197 197 190 199 183 184 185 182 191 191 200 200 207 271 300 302 251 246
151 149 150 160 171 163 161 191 170 182 181 189 189 175 175 192 195 202 190 204 201 202 206 202 206 272 290 282 253 286 278 301
151 177 182 189 191 188 186 178 186 171 173 179 191 191 200 183 202 208 228 236 251 265 267 275 290 280 258 288 311 363 338 318
195 182 189 180 202 198 178 198 194 204 224 225 247 245 249 248 259 243 237 265 268 263 274 262 257 289 299 340 326 309 297 284
184 187 203 216 222 220 195 202 256 248 263 254 250 259 253 233 244 245 277 243 275 247 278 286 302 347 321 303 289 275 265 268
220 202 253 266 258 259 260 240 256 222 230 224 242 257 263 260 251 247 240 259 289 278 303 327 323 301 280 273 265 265 259 258
228 248 229 229 234 243 232 236 247 265 269 240 242 255 271 272 252 296 276 290 296 319 327 302 279 268 262 258 251 250 246 249
225 258 268 291 285 280 275 269 266 270 271 272 268 265 267 276 291 288 288 298 335 307 280 266 258 251 243 241 244 251 258 263
274 284 279 272 267 267 254 270 268 270 265 265 271 267 294 289 288 290 340 316 290 264 256 247 249 230 242 247 247 247 253 259
276 272 268 267 267 264 264 264 265 265 268 292 298 287 287 292 293 324 300 268 256 253 242 242 233 241 236 238 240 241 247 244
264 266 266 264 265 264 278 282 279 288 299 288 285 290 288 344 306 279 256 252 243 244 232 240 237 232 234 236 234 235 242 248
267 265 262 272 269 288 286 277 292 290 284 286 284 287 321 290 264 253 245 240 242 232 239 237 231 231 234 220 232 244 231 253
268 274 290 287 286 294 296 286 280 281 289 276 313 302 271 251 251 242 241 231 239 238 229 229 230 229 233 226 236 241 241 235
287 290 301 296 289 283 282 282 282 277 294 317 290 262 247 238 239 239 228 227 232 221 229 229 233 219 219 224 235 241 245 234
285 282 290 286 282 281 286 276 276 311 306 280 255 248 234 236 234 230 221 230 227 229 227 228 223 231 225 226 223 226 240 243

GFSFLT1_2pvu_pres_180.txt.gz
Presure
170 133 146 154 174 174 178 145 171 140 135 176 170 174 173 170 177 181 181 180 181 169 188 185 185 200 183 185 186 182 196 196
183 161 210 152 175 177 153 172 173 143 172 169 177 181 182 183 189 199 192 187 195 201 201 206 205 206 205 203 211 212 220 215
145 139 156 147 164 183 144 200 193 162 174 174 173 180 183 163 191 197 198 203 201 200 191 189 185 160 167 175 188 192 183 180
187 171 160 156 161 165 162 159 153 170 146 176 194 151 154 158 187 196 184 174 196 179 163 181 184 195 195 196 200 154 204 179
148 152 151 178 151 181 180 155 147 150 192 172 149 166 154 167 149 182 160 164 195 184 208 186 186 195 203 199 202 213 199 162
199 195 159 156 148 182 164 160 173 193 199 191 147 198 197 201 162 187 192 184 192 197 202 207 205 205 217 223 252 266 275 247
209 204 199 189 185 189 192 173 168 188 187 186 186 190 186 186 192 197 204 211 195 192 221 215 223 237 266 239 227 235 244 242
199 197 199 194 198 195 191 190 187 195 198 199 202 202 204 170 196 205 200 212 211 224 260 254 261 238 241 239 289 272 283 293
233 206 199 192 190 185 189 191 192 191 192 196 195 192 194 202 197 217 219 239 257 258 227 231 241 240 278 270 283 286 309 348
248 236 235 251 202 199 194 194 198 200 201 200 200 211 204 218 231 234 249 241 233 247 282 258 275 259 283 274 309 300 326 292
229 225 232 241 246 245 243 242 240 235 234 237 239 238 238 231 225 241 291 287 282 282 279 274 274 276 306 297 311 308 278 266
231 234 230 231 230 228 134 217 229 228 230 227 229 229 232 247 276 278 279 278 274 271 268 264 299 292 298 310 293 270 260 253
111 240 238 231 232 237 229 221 220 220 220 228 230 267 277 278 280 283 282 279 276 289 291 296 289 289 311 283 264 254 251 241
229 229 240 233 225 225 227 219 221 230 251 264 270 282 279 282 281 284 281 288 280 290 288 292 288 297 274 258 249 247 239 240
220 246 247 250 243 235 227 231 254 268 271 274 269 273 282 302 298 291 284 289 290 286 285 302 286 268 255 242 241 240 232 233
253 252 252 251 250 247 256 263 267 267 270 267 271 298 300 300 288 293 282 283 287 278 299 278 259 250 240 237 238 231 231 230
254 260 261 250 252 262 261 263 263 266 267 269 302 300 297 283 279 280 282 284 313 287 268 252 241 240 232 233 232 228 229 228
257 261 266 267 265 271 270 268 264 269 270 306 294 279 275 279 284 281 277 293 278 261 246 240 238 235 229 229 227 230 228 227
274 279 282 280 272 275 269 265 269 275 302 285 281 280 284 280 279 268 297 276 256 242 238 238 233 227 228 227 227 230 231 229

GFSFLT1_2pvu_pres_183.txt.gz
Presure
200 189 143 168 161 176 180 179 191 188 141 160 172 174 169 181 164 152 180 173 180 180 183 182 182 184 190 188 159 193 192 186
157 195 132 167 144 154 152 164 183 150 140 153 178 173 167 127 177 145 179 180 178 172 186 143 199 192 168 201 202 182 197 211
196 183 216 173 151 161 147 159 137 144 173 141 144 175 147 165 178 145 186 192 202 160 193 166 204 148 186 205 201 200 211 195
202 177 205 176 213 196 171 166 160 193 158 174 192 146 169 152 157 174 191 163 191 171 180 196 197 179 203 186 187 163 206 206
205 195 192 190 216 213 213 150 176 185 173 177 163 175 163 156 158 159 154 197 182 189 194 186 196 195 198 203 208 201 201 206
206 181 190 188 193 162 208 216 214 204 205 170 160 161 161 184 184 189 191 195 195 194 199 202 199 194 201 202 204 203 210 228
212 224 208 198 187 193 193 193 197 203 208 208 203 201 198 195 195 189 192 199 205 203 202 195 208 210 203 216 222 233 253 223
245 69 227 222 211 219 206 200 194 196 197 199 199 198 197 195 195 195 201 197 202 199 205 203 205 215 216 236 247 220 285 294
261 235 220 256 243 202 230 226 221 199 199 198 195 199 200 197 195 197 195 188 205 201 203 215 245 246 240 240 286 294 286 282
263 258 250 252 245 246 244 233 223 217 221 235 218 206 204 204 201 201 200 201 205 235 255 235 247 250 260 272 283 277 268 272
259 255 258 249 237 237 239 236 237 238 234 223 229 234 240 248 249 243 250 246 240 233 233 228 265 295 289 283 278 275 304 298
262 259 250 247 235 233 237 236 233 156 238 235 227 232 230 230 234 219 233 238 232 233 280 299 296 284 282 289 302 293 290 294
245 255 258 249 238 235 233 233 233 232 231 233 235 235 229 231 239 235 229 229 266 290 296 298 296 290 284 291 293 325 283 264
248 248 249 249 245 244 238 237 236 235 232 229 237 240 234 229 231 230 253 277 282 298 320 306 293 294 287 287 317 277 259 250
158 255 175 109 210 245 245 245 241 240 242 246 251 252 251 249 256 273 277 278 305 310 297 294 290 283 281 304 270 255 248 239
252 103 101 229 250 246 244 245 248 249 251 253 257 259 259 264 270 271 275 311 308 301 288 283 285 280 295 267 252 243 239 234
249 254 256 256 260 255 247 252 261 259 258 257 260 263 265 272 269 273 309 295 284 278 280 279 311 285 265 251 240 238 231 233
258 256 250 248 252 253 252 254 267 267 263 270 275 273 268 266 272 304 287 276 278 279 276 293 280 261 250 238 231 230 228 228
270 268 257 261 262 264 266 268 275 276 277 270 265 262 265 276 294 283 284 283 280 274 270 280 258 249 237 229 230 226 228 228

GFSFLT1_2pvu_pres_186.txt.gz
Presure
258 199 200 201 172 163 141 146 157 178 172 151 164 138 152 189 188 186 179 187 191 190 191 191 184 184 173 171 181 183 182 177
188 239 204 200 217 163 205 133 183 175 178 167 157 146 171 130 176 192 137 178 135 188 164 169 170 183 154 181 185 177 156 126
169 220 205 207 208 210 215 220 206 153 186 167 175 170 171 138 189 174 139 135 162 162 179 172 169 144 155 155 153 160 199 201
189 223 221 207 201 200 205 205 207 216 188 169 171 178 167 170 158 176 155 153 166 154 164 173 160 157 158 182 201 139 188 189
251 227 235 209 198 199 224 203 187 175 202 209 212 206 198 173 173 172 184 197 199 199 162 140 189 158 183 161 165 196 194 209
220 220 208 210 215 196 197 203 212 202 204 203 202 202 212 218 167 212 207 204 199 193 184 170 173 176 192 199 202 208 203 203
242 214 209 238 217 204 213 196 182 197 204 198 199 200 194 190 197 206 212 214 214 214 212 211 208 210 211 202 205 206 199 208
246 131 137 188 193 215 219 214 219 207 214 213 205 203 202 202 203 200 200 201 200 202 203 204 206 206 206 207 204 202 202 207
239 227 220 207 273 262 252 201 195 234 203 213 225 215 215 216 205 202 200 200 200 200 202 200 203 204 205 200 208 215 218 215
228 274 199 204 250 255 258 263 253 248 238 204 223 244 220 212 204 221 226 225 222 212 202 207 212 234 242 257 248 240 228 243
269 270 261 260 246 248 264 268 255 243 236 234 237 237 238 237 235 233 235 227 225 232 224 225 230 237 238 233 223 244 246 306
259 264 253 258 252 254 252 256 253 253 237 233 239 240 237 235 237 237 236 237 240 244 246 240 242 243 237 240 231 323 314 290
254 269 251 261 244 257 249 245 257 257 240 243 236 233 234 235 236 238 238 237 237 240 248 249 246 236 251 292 318 308 296 297
271 130 233 233 239 237 238 248 252 256 257 247 241 238 237 237 237 239 240 241 242 234 258 263 269 284 289 310 301 300 292 287
247 261 89 215 245 247 107 180 240 244 246 250 244 243 245 245 244 246 244 245 253 258 270 279 280 286 311 300 295 285 282 305
202 131 238 259 275 242 98 257 240 237 239 242 247 250 246 249 249 251 254 259 270 276 274 273 290 306 294 284 284 278 299 266
159 245 242 248 256 249 258 256 250 262 262 249 255 255 250 253 251 285 281 276 273 268 266 283 292 280 277 284 275 292 264 250
278 235 248 251 244 243 249 265 262 256 255 254 256 254 255 260 272 275 272 267 264 263 283 290 275 278 280 276 289 263 247 242
266 273 264 254 254 255 253 259 257 254 264 265 270 273 268 272 277 268 265 261 262 281 285 274 278 275 268 289 262 245 241 235

GFSFLT1_2pvu_pres_192.txt.gz
Presure
174 175 184 186 180 195 212 190 173 237 210 208 188 232 129 230 193 188 165 151 165 168 177 183 177 177 176 189 188 181 188 153
189 141 186 180 205 215 216 249 238 229 226 230 159 221 235 128 234 182 200 189 184 161 122 163 191 184 176 145 172 147 188 162
179 189 185 157 202 205 199 224 233 235 207 223 190 152 226 191 162 227 220 196 182 181 175 180 143 194 154 160 182 193 152 193
214 197 196 199 191 218 219 192 208 236 218 223 211 212 229 208 161 200 199 219 205 198 193 180 180 182 172 168 179 183 175 143
216 216 197 205 117 224 205 203 196 209 197 205 213 222 223 226 222 171 174 208 197 212 213 207 179 181 176 180 168 178 182 167
84 198 216 217 213 216 222 197 237 217 238 225 202 204 223 231 217 222 212 221 225 211 212 209 208 211 211 211 218 178 203 189
94 200 205 150 219 216 233 246 207 212 176 158 186 232 227 222 238 232 219 221 219 218 218 193 210 221 216 211 211 211 215 216
140 216 213 206 124 230 254 246 232 223 234 230 239 226 232 246 202 210 221 213 217 221 225 220 197 194 205 205 206 212 224 222
207 206 207 237 204 255 224 223 236 245 247 231 225 230 236 240 191 242 181 195 219 221 215 206 207 208 206 210 204 206 203 212
225 227 208 212 214 214 229 228 249 267 247 235 221 245 231 228 224 229 238 242 212 248 247 232 218 191 224 198 196 203 215 213
215 218 239 228 239 239 277 331 290 252 237 244 245 240 213 215 212 224 230 230 217 237 236 237 226 210 208 214 220 224 216 216
248 253 254 262 340 322 320 292 247 232 233 232 236 234 206 233 226 217 216 218 227 234 229 243 246 238 240 233 230 220 225 226
322 314 302 353 220 317 261 243 243 226 230 146 229 217 228 232 225 225 225 237 241 245 226 252 232 226 236 241 231 239 250 249
341 362 341 291 199 273 97 243 177 227 101 226 176 218 221 216 230 237 226 221 225 251 242 250 241 242 233 243 242 245 251 251
320 321 281 266 121 249 87 240 239 227 229 181 217 217 224 208 148 230 239 237 239 239 224 233 251 251 245 249 251 246 245 256
320 324 272 234 253 122 88 246 237 231 220 228 230 223 227 239 232 230 227 226 224 231 238 258 249 239 235 255 258 262 266 258
356 289 280 261 243 229 223 231 251 225 233 230 247 226 237 242 243 257 256 266 265 254 239 239 271 266 264 256 252 253 281 282
354 282 275 247 243 229 234 261 223 232 245 237 236 230 227 252 237 245 239 237 236 241 232 253 253 261 262 261 264 284 285 274
197 276 273 255 250 242 239 240 236 239 242 240 243 234 225 238 247 236 238 238 245 254 250 252 257 273 272 278 281 277 270 265

GFSFLT1_2pvu_pres_195.txt.gz
Presure
165 210 154 190 196 178 210 187 196 146 158 174 192 230 252 188 174 184 136 193 173 226 195 191 179 161 176 191 184 146 174 157
193 197 142 188 199 194 211 182 169 177 202 199 206 214 161 247 234 230 228 220 170 134 225 159 193 179 192 160 179 193 133 185
187 181 182 206 189 207 184 196 208 187 182 191 192 213 179 217 233 228 219 226 207 164 205 188 225 194 182 179 177 183 189 189
187 178 182 197 195 201 191 201 192 201 195 195 189 224 209 196 200 225 211 217 228 194 221 177 184 225 221 198 185 191 176 164
214 222 210 186 207 203 194 197 193 207 205 207 189 237 223 196 206 212 227 218 223 215 215 213 217 177 188 210 221 213 197 190
212 201 76 95 203 136 207 210 184 183 196 196 222 201 190 197 204 228 206 234 235 232 228 224 217 207 221 170 174 183 222 218
99 202 193 199 204 95 116 189 215 203 192 224 210 206 222 205 203 213 204 241 221 199 208 228 231 225 212 220 234 235 225 210
144 125 163 208 208 185 224 176 149 222 228 229 211 241 210 205 218 206 227 220 241 218 217 229 215 232 221 228 209 212 222 223
208 211 217 219 219 235 177 230 192 200 207 218 204 262 210 203 217 224 229 226 226 240 231 236 205 221 226 207 216 209 199 203
219 221 229 190 247 251 212 212 212 204 191 208 223 215 221 237 227 238 239 229 227 234 226 236 251 172 221 196 228 216 229 225
219 218 225 227 234 240 234 233 227 267 281 259 224 233 253 255 240 245 236 230 220 217 241 226 236 232 226 238 219 212 199 204
241 177 235 242 220 147 292 300 297 287 287 304 270 262 262 264 246 228 222 231 227 220 226 226 223 242 229 239 232 236 237 217
256 281 364 374 366 329 301 302 287 310 322 283 280 250 89 174 234 247 223 233 232 215 222 233 229 239 234 217 217 227 222 225
376 318 339 332 325 324 340 294 313 322 347 281 251 249 227 174 209 224 231 231 210 216 228 221 220 225 226 227 229 234 231 229
342 340 335 342 335 335 326 244 300 210 185 249 237 241 226 236 223 218 218 217 224 231 221 225 224 227 228 230 214 229 234 240
330 336 364 328 325 333 292 279 275 219 240 240 239 227 234 220 232 226 226 222 225 214 215 202 215 215 217 226 239 238 220 233
341 358 336 305 298 275 280 269 251 235 228 230 239 236 223 229 217 215 225 218 226 217 218 213 215 212 223 222 231 218 254 239
314 340 319 301 285 263 270 252 255 236 256 237 232 245 229 228 228 225 219 228 225 221 216 224 219 228 230 237 238 253 249 245
299 313 329 287 270 248 253 248 248 244 231 225 233 250 237 239 224 217 215 228 225 219 218 215 223 228 249 239 228 236 253 258

GFSFLT1_2pvu_pres_201.txt.gz
Presure
192 195 209 187 174 178 173 167 162 179 140 173 179 169 184 214 186 183 198 188 187 184 184 176 212 160 187 213 130 186 177 207
196 185 182 187 190 187 172 172 167 179 187 176 189 198 194 164 201 232 203 197 183 184 198 190 202 211 199 236 221 176 208 224
194 203 200 179 179 191 184 189 180 173 177 170 188 190 210 195 189 186 158 181 178 200 193 198 199 199 208 215 241 245 227 216
208 201 208 194 188 190 186 187 189 182 179 182 190 199 193 185 182 191 186 183 185 179 197 201 184 194 199 198 182 214 239 218
130 89 97 199 201 189 194 190 185 188 184 192 196 194 217 219 183 170 188 187 193 185 203 195 196 183 224 213 237 215 179 207
134 213 206 201 201 195 73 171 190 193 100 198 201 213 210 179 200 198 207 177 195 187 195 175 209 226 196 230 197 231 223 203
221 213 206 205 209 89 205 207 140 185 204 209 222 108 197 182 204 126 218 184 190 202 193 202 194 180 184 190 199 182 200 193
195 187 216 207 211 217 221 223 156 227 241 223 203 214 213 199 164 200 176 198 182 202 178 188 180 191 204 212 188 247 223 221
199 262 244 232 235 229 221 221 207 198 202 226 213 212 192 232 218 202 229 180 193 179 218 218 223 230 217 200 205 204 197 196
253 203 201 209 211 213 196 202 197 177 211 203 210 211 214 199 208 213 234 197 182 227 235 204 222 200 181 194 188 187 202 228
236 241 239 233 224 219 215 219 215 218 215 217 196 191 191 195 159 206 207 199 201 199 189 204 207 196 198 195 192 198 239 228
215 233 230 231 232 234 230 226 220 224 227 228 228 228 226 230 229 216 224 224 222 207 216 188 186 193 211 220 220 229 222 221
234 237 240 244 246 246 251 250 246 219 249 250 242 237 237 241 240 238 237 91 184 227 232 233 230 227 222 220 244 241 228 226
267 281 302 300 297 282 282 282 263 285 300 286 288 284 278 282 237 255 249 241 240 238 235 232 233 246 234 247 242 198 253 226
395 384 378 374 376 383 347 380 369 364 356 378 379 367 259 350 345 369 340 300 265 275 260 259 247 249 245 230 242 253 221 232
356 352 351 359 343 339 330 330 325 338 339 333 334 170 177 391 340 322 339 303 288 286 270 273 247 240 240 228 235 236 210 227
318 311 313 316 330 315 312 315 314 326 322 328 340 292 311 305 297 301 290 279 281 272 271 246 236 223 214 215 228 215 225 210
302 296 311 318 303 311 315 324 320 322 340 336 311 280 270 268 284 266 269 268 274 248 236 232 218 231 215 213 225 220 209 209
292 308 295 298 289 312 307 299 298 305 306 279 272 258 264 250 258 254 253 248 248 238 223 233 226 215 215 228 217 215 216 217

GFSFLT1_2pvu_pres_204.txt.gz
Presure
210 182 159 250 237 200 193 189 180 201 195 181 174 186 172 186 174 168 178 182 191 205 188 228 203 204 154 195 191 194 198 143
170 246 238 245 228 209 193 197 202 180 177 189 190 185 185 184 184 181 165 171 185 194 191 214 195 134 198 194 189 185 189 201
238 168 204 246 206 204 197 176 203 190 189 182 174 190 173 179 186 190 174 189 152 184 182 204 191 188 196 200 200 201 181 195
144 82 145 140 224 215 158 192 191 201 205 194 181 182 181 196 162 192 181 179 176 185 166 199 151 200 200 180 196 174 191 198
103 108 223 192 239 133 192 199 189 205 200 204 189 187 191 196 193 189 188 182 194 192 199 180 185 177 203 186 197 177 183 220
109 241 228 226 234 135 227 168 134 198 199 89 193 203 204 204 196 203 193 192 189 192 190 205 200 185 204 191 195 196 187 181
234 237 226 231 224 236 219 205 171 79 205 173 170 202 200 201 203 197 201 199 190 199 205 207 192 200 203 199 193 187 199 209
249 243 235 232 232 229 222 214 222 195 182 198 204 135 206 210 211 211 210 186 214 224 188 149 213 197 205 194 195 176 184 180
236 241 239 237 230 230 240 194 194 217 193 198 212 214 196 235 232 215 238 227 237 206 201 223 197 193 198 194 180 184 187 205
247 247 245 248 225 225 234 235 221 243 220 209 204 202 93 211 212 208 215 204 195 206 203 206 213 202 208 176 201 174 182 185
241 249 246 246 152 245 235 219 244 247 217 205 230 234 217 211 228 224 217 207 210 195 198 226 222 204 191 199 218 209 215 213
244 243 242 245 250 248 240 244 248 247 232 243 231 237 225 206 213 206 206 205 218 205 200 206 196 206 175 225 212 211 194 188
230 234 238 239 236 248 256 262 262 261 261 254 245 222 226 231 229 222 221 216 215 224 217 224 212 205 212 205 221 199 206 211
270 288 310 336 359 417 410 409 423 395 345 187 274 266 268 264 242 234 234 227 228 223 224 216 217 216 204 206 213 205 207 206
424 406 378 360 347 389 375 353 391 336 347 245 406 347 327 311 305 294 254 256 246 243 241 234 221 225 219 214 223 217 237 208
337 288 298 343 332 319 321 332 313 298 304 313 334 322 325 332 340 342 333 229 318 277 275 262 257 233 237 231 235 219 221 240
316 300 316 308 307 301 318 315 299 295 294 321 316 323 334 345 353 359 372 336 347 322 322 357 312 266 263 251 259 251 246 241
305 297 299 288 304 292 300 317 328 325 305 309 323 360 332 326 332 339 352 310 301 290 317 289 268 250 255 238 244 225 225 226
306 286 290 301 288 294 301 292 288 287 291 315 320 336 319 298 290 298 311 306 299 292 292 255 272 251 261 258 258 240 227 223

GFSFLT1_2pvu_pres_207.txt.gz
Presure
131 151 155 175 185 156 174 213 249 250 237 239 214 216 181 179 173 176 182 192 176 187 170 166 184 169 173 171 193 185 200 195
159 162 158 200 154 176 213 185 252 245 227 227 207 206 193 170 193 166 173 184 184 189 181 191 171 175 192 197 197 147 185 194
167 131 147 97 99 165 209 228 253 237 211 154 217 202 213 177 218 184 180 183 181 163 179 181 176 185 178 188 183 173 193 190
75 84 145 101 86 150 237 239 195 243 100 213 208 197 204 191 173 177 174 168 171 173 189 193 170 197 193 189 190 189 192 182
168 87 221 237 246 250 239 248 194 214 192 219 185 204 205 196 181 201 166 170 181 184 185 188 185 181 193 193 185 188 178 174
211 202 110 231 240 241 241 238 229 233 241 219 214 180 205 187 191 180 180 178 197 193 194 169 200 191 186 190 184 181 181 178
144 236 236 228 236 244 250 230 235 230 229 245 207 132 193 181 195 196 153 190 173 186 186 192 193 171 197 189 183 190 181 195
251 240 236 237 240 238 239 249 228 212 224 224 214 225 217 203 196 207 200 181 202 198 187 185 188 187 193 193 194 200 191 211
240 234 237 232 236 238 241 241 253 236 247 215 221 230 224 226 218 101 214 185 183 200 204 204 199 192 192 192 185 125 213 219
208 124 234 244 241 240 241 251 183 247 250 252 215 209 215 221 222 231 217 215 213 213 205 202 212 213 201 199 199 205 207 204
233 236 244 218 253 250 250 251 236 232 244 253 254 237 214 218 225 234 225 231 206 206 217 205 199 201 231 219 220 194 200 194
246 249 254 246 248 256 259 258 267 270 236 237 247 259 238 219 222 220 226 226 216 218 218 223 225 211 194 196 220 193 188 199
258 255 259 267 272 276 277 288 292 296 297 301 297 253 249 264 242 164 225 189 224 223 204 203 199 195 196 212 202 206 188 203
277 288 291 302 317 347 349 392 383 382 375 392 417 355 310 278 179 256 260 253 240 234 231 228 213 213 217 214 213 215 198 190
344 426 424 386 356 345 330 333 344 334 332 334 359 230 342 358 391 376 292 270 263 250 255 121 238 236 232 239 224 213 209 197
414 359 354 334 323 309 309 307 347 333 324 335 323 319 309 321 338 296 349 354 342 279 233 259 223 220 220 227 229 203 212 199
365 331 315 308 307 302 290 309 300 317 313 321 308 301 308 302 309 346 334 329 337 336 341 295 259 258 230 228 228 224 224 206
312 302 291 303 300 299 302 299 293 310 312 312 299 294 287 327 333 327 320 336 346 331 332 328 335 343 308 251 243 229 220 218
289 288 282 296 297 291 296 284 294 290 288 300 299 295 311 332 347 332 322 314 322 328 325 340 326 307 294 313 356 261 232 229